This demonstration page uses our WeatherBlox Daily Observations layout. Learn more.

Left ArrowRight Arrow

Hourly Observations for August 27, 2019

Temp ( °F °C ) Dew Point ( °F °C ) Humidity (%) Winds ( mph kmh ) Pressure ( in mb ) Visibility ( mi km ) Precip ( " mm )
12:56 am 00:56 Clear 68 20 59 15 73 73 WNW 7 11 29.91 1013 10 16 0.00 0.00
1:56 am 01:56 Clear 66 19 57 14 73 73 WSW 6 9 29.93 1014 10 16 0.00 0.00
2:56 am 02:56 Clear 63 17 57 14 83 83 WNW 6 9 29.93 1013 10 16 0.00 0.00
3:56 am 03:56 Clear 63 17 57 14 83 83 W 3 6 29.95 1014 10 16 0.00 0.00
4:56 am 04:56 Clear 61 16 55 13 83 83 WNW 7 11 29.94 1014 10 16 0.00 0.00
5:56 am 05:56 Clear 59 15 55 13 88 88 Calm 29.95 1014 10 16 0.00 0.00
6:56 am 06:56 Sunny 59 15 55 13 88 88 WNW 5 7 29.97 1015 10 16 0.00 0.00
7:56 am 07:56 Sunny 63 17 55 13 77 77 WNW 8 13 30.00 1016 10 16 0.00 0.00
8:56 am 08:56 Sunny 66 19 55 13 68 68 WNW 9 15 30.01 1016 10 16 0.00 0.00
9:56 am 09:56 Sunny 72 22 55 13 57 57 WNW 9 15 30.02 1017 10 16 0.00 0.00
10:56 am 10:56 Sunny 73 23 54 12 50 50 NW 15 24 30.03 1017 10 16 0.00 0.00
11:56 am 11:56 Mostly Sunny 77 25 50 10 39 39 NW 12 19 30.02 1017 10 16 0.00 0.00
12:56 pm 12:56 Mostly Cloudy 77 25 50 10 39 39 WNW 14 22 30.02 1017 10 16 0.00 0.00
1:56 pm 13:56 Mostly Cloudy 75 24 52 11 44 44 WNW 15 24 30.04 1017 10 16 0.00 0.00
2:56 pm 14:56 Mostly Cloudy 77 25 55 13 47 47 W 12 19 30.04 1017 10 16 0.00 0.00
3:56 pm 15:56 Mostly Cloudy 73 23 57 14 57 57 WSW 15 24 30.03 1017 10 16 0.00 0.00
4:56 pm 16:56 Partly Cloudy 77 25 55 13 47 47 WSW 15 24 30.02 1017 10 16 0.00 0.00
5:56 pm 17:56 Mostly Sunny 75 24 50 10 41 41 W 18 30 30.03 1017 10 16 0.00 0.00
6:56 pm 18:56 Mostly Sunny 73 23 46 8 38 38 W 13 20 30.03 1017 10 16 0.00 0.00
8:41 pm 20:41 Clear with Mist and Fog N/A N/A N/A W 3 6 N/A 2 4 0.00 0.00
8:56 pm 20:56 Mostly Clear 68 20 50 10 53 53 WSW 7 11 30.04 1017 10 16 0.00 0.00
9:56 pm 21:56 Clear 66 19 55 13 68 68 SW 5 7 30.05 1018 10 16 0.00 0.00
10:56 pm 22:56 Clear 63 17 55 13 77 77 WSW 5 7 30.05 1018 10 16 0.00 0.00
11:56 pm 23:56 Clear 63 17 55 13 77 77 WNW 5 7 30.05 1018 10 16 0.00 0.00

Powered by AerisWeather